When you browse on this site, cookies collect data to enhance your experience and personalize the content and advertising you see.
Visit our Privacy Policy to learn more. By continuing to use the site, you agree to this use of cookies and data.
  • In Lithuania
  • List of Countries
  • For 7 days
  • Water Temperature
  • Weather Map
  • Weather Widgets
  • user-avatar
    Login

    Hourly Weather Yasna

    Today, 9 April, Thursday

    Time Temperature Precipitation Wind Pressure Humidity
    00:00 +8°C° 0 mm 1 mps 723 mmHg 53%
    01:00 +8°C° 0 mm 1 mps 723 mmHg 54%
    02:00 +8°C° 0 mm 1 mps 722 mmHg 54%
    03:00 +8°C° 0 mm 1 mps 722 mmHg 54%
    04:00 +7°C° 0 mm 1 mps 722 mmHg 55%
    05:00 +9°C° 0 mm 1 mps 722 mmHg 53%
    06:00 +9°C° 0 mm 0 mps 722 mmHg 52%
    07:00 +10°C° 0 mm 0 mps 723 mmHg 49%
    08:00 +13°C° 0 mm 1 mps 723 mmHg 43%
    09:00 +15°C° 0 mm 1 mps 723 mmHg 38%
    10:00 +17°C° 0 mm 2 mps 723 mmHg 32%
    11:00 +17°C° 0 mm 2 mps 723 mmHg 32%
    12:00 +18°C° 0 mm 3 mps 722 mmHg 32%
    13:00 +19°C° 0 mm 3 mps 722 mmHg 31%
    14:00 +18°C° 0 mm 3 mps 721 mmHg 33%
    15:00 +18°C° 0 mm 3 mps 721 mmHg 34%
    16:00 +18°C° 0 mm 3 mps 721 mmHg 36%
    17:00 +16°C° 0 mm 3 mps 720 mmHg 43%
    18:00 +14°C° 0 mm 2 mps 720 mmHg 50%
    19:00 +12°C° 0 mm 2 mps 720 mmHg 57%
    20:00 +10°C° 0 mm 2 mps 720 mmHg 58%
    21:00 +10°C° 0 mm 2 mps 720 mmHg 60%
    22:00 +9°C° 0 mm 2 mps 720 mmHg 61%
    23:00 +9°C° 0 mm 2 mps 721 mmHg 64%

    Tomorrow, 10 April, Friday

    Time Temperature Precipitation Wind Pressure Humidity
    00:00 +8°C° 0 mm 2 mps 721 mmHg 66%
    01:00 +8°C° 0 mm 2 mps 721 mmHg 69%
    02:00 +8°C° 0 mm 2 mps 721 mmHg 74%
    03:00 +7°C° 0 mm 2 mps 721 mmHg 80%
    04:00 +7°C° 0 mm 2 mps 721 mmHg 86%
    05:00 +8°C° 0 mm 2 mps 722 mmHg 82%
    06:00 +9°C° 0 mm 2 mps 722 mmHg 78%
    07:00 +9°C° 0 mm 2 mps 722 mmHg 73%
    08:00 +12°C° 0 mm 2 mps 723 mmHg 65%
    09:00 +13°C° 0 mm 2 mps 723 mmHg 56%
    10:00 +14°C° 0 mm 2 mps 724 mmHg 47%
    11:00 +15°C° 0 mm 2 mps 724 mmHg 43%
    12:00 +16°C° 0 mm 2 mps 724 mmHg 40%
    13:00 +17°C° 0 mm 2 mps 724 mmHg 36%
    14:00 +17°C° 0 mm 2 mps 723 mmHg 37%
    15:00 +16°C° 0 mm 2 mps 723 mmHg 37%
    16:00 +16°C° 0 mm 2 mps 722 mmHg 37%
    17:00 +14°C° 0 mm 2 mps 722 mmHg 44%
    18:00 +12°C° 0 mm 2 mps 722 mmHg 52%
    19:00 +9°C° 0 mm 2 mps 722 mmHg 59%
    20:00 +9°C° 0 mm 1 mps 722 mmHg 60%
    21:00 +8°C° 0 mm 1 mps 722 mmHg 62%
    22:00 +7°C° 0 mm 1 mps 722 mmHg 64%
    23:00 +7°C° 0 mm 1 mps 722 mmHg 64%

    Day after tomorrow, 11 April, Saturday

    Time Temperature Precipitation Wind Pressure Humidity
    00:00 +6°C° 0 mm 1 mps 722 mmHg 65%
    01:00 +6°C° 0 mm 1 mps 722 mmHg 65%
    02:00 +6°C° 0 mm 1 mps 722 mmHg 66%
    03:00 +5°C° 0 mm 1 mps 722 mmHg 66%
    04:00 +5°C° 0 mm 1 mps 722 mmHg 66%
    05:00 +6°C° 0 mm 1 mps 723 mmHg 64%
    06:00 +6°C° 0 mm 0 mps 723 mmHg 61%
    07:00 +7°C° 0 mm 0 mps 723 mmHg 58%
    08:00 +9°C° 0 mm 0 mps 724 mmHg 52%
    09:00 +13°C° 0 mm 1 mps 724 mmHg 47%
    10:00 +15°C° 0 mm 1 mps 724 mmHg 41%
    11:00 +16°C° 0 mm 1 mps 724 mmHg 38%
    12:00 +16°C° 0 mm 1 mps 724 mmHg 35%
    13:00 +18°C° 0 mm 1 mps 724 mmHg 33%
    14:00 +18°C° 0 mm 1 mps 724 mmHg 34%
    15:00 +16°C° 0 mm 1 mps 723 mmHg 35%
    16:00 +16°C° 0 mm 1 mps 723 mmHg 36%
    17:00 +14°C° 0 mm 1 mps 723 mmHg 44%
    18:00 +12°C° 0 mm 1 mps 723 mmHg 53%
    19:00 +10°C° 0 mm 1 mps 723 mmHg 61%
    20:00 +9°C° 0 mm 1 mps 723 mmHg 63%
    21:00 +8°C° 0 mm 1 mps 723 mmHg 65%
    22:00 +8°C° 0 mm 1 mps 723 mmHg 67%
    23:00 +7°C° 0 mm 1 mps 723 mmHg 68%

    12 April, Sunday

    Time Temperature Precipitation Wind Pressure Humidity
    00:00 +7°C° 0 mm 1 mps 723 mmHg 69%
    01:00 +6°C° 0 mm 1 mps 723 mmHg 70%
    02:00 +6°C° 0 mm 1 mps 723 mmHg 70%
    03:00 +6°C° 0 mm 1 mps 722 mmHg 71%
    04:00 +5°C° 0 mm 1 mps 722 mmHg 72%
    05:00 +7°C° 0 mm 1 mps 722 mmHg 68%
    06:00 +7°C° 0 mm 0 mps 722 mmHg 64%
    07:00 +8°C° 0 mm 0 mps 723 mmHg 61%
    08:00 +11°C° 0 mm 1 mps 722 mmHg 57%
    09:00 +13°C° 0 mm 1 mps 722 mmHg 53%
    10:00 +14°C° 0 mm 2 mps 722 mmHg 48%
    11:00 +15°C° 0 mm 2 mps 722 mmHg 48%
    12:00 +16°C° 0 mm 3 mps 721 mmHg 48%
    13:00 +16°C° 0 mm 3 mps 721 mmHg 47%
    14:00 +16°C° 0 mm 3 mps 720 mmHg 49%
    15:00 +16°C° 0 mm 3 mps 720 mmHg 50%
    16:00 +15°C° 0 mm 2 mps 719 mmHg 51%
    17:00 +14°C° 0 mm 2 mps 719 mmHg 58%
    18:00 +12°C° 0 mm 2 mps 718 mmHg 65%
    19:00 +10°C° 0 mm 1 mps 718 mmHg 71%
    20:00 +10°C° 0 mm 1 mps 718 mmHg 72%
    21:00 +9°C° 0 mm 1 mps 717 mmHg 73%
    22:00 +9°C° 0 mm 1 mps 717 mmHg 75%
    23:00 +9°C° 0 mm 1 mps 717 mmHg 72%

    13 April, Monday

    Time Temperature Precipitation Wind Pressure Humidity
    00:00 +9°C° 0 mm 1 mps 716 mmHg 70%
    01:00 +9°C° 0 mm 1 mps 716 mmHg 68%
    02:00 +9°C° 0 mm 1 mps 716 mmHg 70%
    03:00 +9°C° 0 mm 1 mps 715 mmHg 71%
    04:00 +8°C° 0 mm 1 mps 715 mmHg 72%
    05:00 +9°C° 0 mm 1 mps 715 mmHg 73%
    06:00 +9°C° 0 mm 1 mps 715 mmHg 73%
    07:00 +10°C° 0 mm 1 mps 714 mmHg 74%
    08:00 +10°C° 0 mm 2 mps 714 mmHg 70%
    09:00 +13°C° 0 mm 2 mps 714 mmHg 66%
    10:00 +13°C° 0 mm 3 mps 714 mmHg 63%
    11:00 +14°C° 0 mm 2 mps 713 mmHg 62%
    12:00 +15°C° 0 mm 2 mps 713 mmHg 62%
    13:00 +15°C° 0 mm 2 mps 713 mmHg 62%
    14:00 +16°C° 0.1 mm 2 mps 712 mmHg 62%
    15:00 +16°C° 0.1 mm 2 mps 711 mmHg 62%
    16:00 +16°C° 0.1 mm 3 mps 711 mmHg 62%
    17:00 +14°C° 0.4 mm 3 mps 711 mmHg 69%
    18:00 +13°C° 0.4 mm 3 mps 710 mmHg 75%
    19:00 +11°C° 0.4 mm 3 mps 710 mmHg 81%
    20:00 +11°C° 0.8 mm 3 mps 710 mmHg 85%
    21:00 +10°C° 0.8 mm 2 mps 710 mmHg 88%
    22:00 +10°C° 0.8 mm 2 mps 710 mmHg 92%
    23:00 +9°C° 0.2 mm 2 mps 710 mmHg 93%

    14 April, Tuesday

    Time Temperature Precipitation Wind Pressure Humidity
    00:00 +9°C° 0.2 mm 2 mps 710 mmHg 94%
    01:00 +9°C° 0.2 mm 2 mps 710 mmHg 95%
    02:00 +8°C° 0.2 mm 3 mps 710 mmHg 93%
    03:00 +7°C° 0.2 mm 3 mps 710 mmHg 91%
    04:00 +5°C° 0.2 mm 3 mps 711 mmHg 89%
    05:00 +4°C° 0 mm 4 mps 711 mmHg 85%
    06:00 +3°C° 0 mm 4 mps 712 mmHg 81%
    07:00 +1°C° 0 mm 4 mps 713 mmHg 77%
    08:00 +1°C° 0 mm 5 mps 714 mmHg 68%
    09:00 +2°C° 0 mm 5 mps 714 mmHg 60%
    10:00 +2°C° 0 mm 5 mps 715 mmHg 52%
    11:00 +2°C° 0 mm 5 mps 716 mmHg 48%
    12:00 +3°C° 0 mm 5 mps 716 mmHg 43%
    13:00 +5°C° 0 mm 5 mps 717 mmHg 38%
    14:00 +3°C° 0 mm 5 mps 717 mmHg 39%
    15:00 +4°C° 0 mm 4 mps 717 mmHg 39%
    16:00 +4°C° 0 mm 4 mps 717 mmHg 39%
    17:00 +3°C° 0 mm 3 mps 717 mmHg 45%
    18:00 +1°C° 0 mm 3 mps 718 mmHg 50%
    19:00 +1°C° 0 mm 2 mps 718 mmHg 56%
    20:00 -1°C° 0 mm 2 mps 718 mmHg 60%
    21:00 +1°C° 0 mm 1 mps 719 mmHg 64%
    22:00 0°C° 0 mm 1 mps 719 mmHg 68%
    23:00 0°C° 0 mm 1 mps 719 mmHg 68%
    Show more